Location: Lanoux
(43.1180°N, 1.4255°E)
Time: 13:35:32
(UTC+00:00)

Meteor 2-10 - Pass Details

Date: 19 March 2026
Orbit: 736 x 866 km, 81.2° (Epoch: 18 April)

Event Time Altitude Azimuth Distance (km) Brightness Sun altitude
Rises 18:34:32 0° 196° (SSW) 3,285 7.4 -6.2°
Reaches altitude 10° 18:36:57 10° 198° (SSW) 2,339 6.7 -6.6°
Maximum altitude 18:42:11 67° 281° (WNW) 830 4.5 -7.5°
Drops below altitude 10° 18:47:17 10° 5° (N) 2,283 6.5 -8.5°
Sets 18:49:37 0° 8° (N) 3,199 7.2 -8.9°
